• In Belarus
  • List of Countries
  • For 7 days
  • Water Temperature
  • Satellite Maps
  • Weather Map
  • Weather Widgets
  • user-avatar
    Login

    Hourly Weather Zdzieslawice

    Today, 22 July, Sunday

    Time Temperature Precipitation Wind Pressure Humidity
    00:00 +19°C° 0 mm 2 mps 750 mmHg 73%
    01:00 +18°C° 0 mm 2 mps 751 mmHg 76%
    02:00 +18°C° 0 mm 2 mps 750 mmHg 77%
    03:00 +17°C° 0 mm 2 mps 750 mmHg 79%
    04:00 +18°C° 0 mm 1 mps 750 mmHg 81%
    05:00 +19°C° 0 mm 1 mps 750 mmHg 78%
    06:00 +19°C° 0 mm 2 mps 751 mmHg 75%
    07:00 +20°C° 0 mm 2 mps 751 mmHg 72%
    08:00 +23°C° 0 mm 2 mps 751 mmHg 66%
    09:00 +24°C° 0 mm 2 mps 751 mmHg 61%
    10:00 +26°C° 0 mm 2 mps 751 mmHg 56%
    11:00 +26°C° 0 mm 2 mps 751 mmHg 52%
    12:00 +27°C° 0 mm 3 mps 751 mmHg 49%
    13:00 +28°C° 0 mm 3 mps 750 mmHg 45%
    14:00 +28°C° 0 mm 3 mps 750 mmHg 45%
    15:00 +28°C° 0 mm 3 mps 750 mmHg 45%
    16:00 +28°C° 0 mm 3 mps 750 mmHg 45%
    17:00 +27°C° 0 mm 3 mps 750 mmHg 51%
    18:00 +26°C° 0 mm 2 mps 750 mmHg 56%
    19:00 +25°C° 0 mm 2 mps 750 mmHg 62%
    20:00 +23°C° 0 mm 2 mps 751 mmHg 64%
    21:00 +21°C° 0 mm 2 mps 751 mmHg 67%
    22:00 +20°C° 0 mm 2 mps 751 mmHg 69%
    23:00 +20°C° 0 mm 2 mps 751 mmHg 72%

    Tomorrow, 23 July, Monday

    Time Temperature Precipitation Wind Pressure Humidity
    00:00 +19°C° 0 mm 2 mps 751 mmHg 75%
    01:00 +19°C° 0 mm 2 mps 751 mmHg 78%
    02:00 +18°C° 0 mm 2 mps 752 mmHg 81%
    03:00 +18°C° 0 mm 2 mps 752 mmHg 84%
    04:00 +18°C° 0 mm 1 mps 752 mmHg 87%
    05:00 +20°C° 0 mm 1 mps 752 mmHg 82%
    06:00 +21°C° 0 mm 1 mps 752 mmHg 77%
    07:00 +23°C° 0 mm 2 mps 752 mmHg 73%
    08:00 +24°C° 0 mm 2 mps 752 mmHg 66%
    09:00 +26°C° 0 mm 2 mps 753 mmHg 59%
    10:00 +27°C° 0 mm 2 mps 753 mmHg 53%
    11:00 +28°C° 0 mm 3 mps 752 mmHg 50%
    12:00 +29°C° 0 mm 3 mps 752 mmHg 47%
    13:00 +30°C° 0 mm 3 mps 752 mmHg 44%
    14:00 +29°C° 0 mm 3 mps 752 mmHg 46%
    15:00 +29°C° 0 mm 3 mps 752 mmHg 48%
    16:00 +29°C° 0 mm 3 mps 752 mmHg 51%
    17:00 +28°C° 0 mm 3 mps 752 mmHg 55%
    18:00 +27°C° 0 mm 2 mps 752 mmHg 60%
    19:00 +26°C° 0 mm 2 mps 753 mmHg 65%
    20:00 +25°C° 0 mm 2 mps 753 mmHg 69%
    21:00 +23°C° 0 mm 2 mps 753 mmHg 73%
    22:00 +21°C° 0 mm 2 mps 754 mmHg 77%
    23:00 +20°C° 0 mm 2 mps 754 mmHg 80%

    Day after tomorrow, 24 July, Tuesday

    Time Temperature Precipitation Wind Pressure Humidity
    00:00 +20°C° 0 mm 2 mps 754 mmHg 83%
    01:00 +19°C° 0 mm 2 mps 754 mmHg 86%
    02:00 +19°C° 0 mm 2 mps 754 mmHg 88%
    03:00 +18°C° 0 mm 2 mps 754 mmHg 90%
    04:00 +18°C° 0 mm 2 mps 754 mmHg 92%
    05:00 +19°C° 0 mm 2 mps 754 mmHg 87%
    06:00 +20°C° 0 mm 2 mps 754 mmHg 81%
    07:00 +21°C° 0 mm 2 mps 754 mmHg 76%
    08:00 +23°C° 0 mm 2 mps 754 mmHg 70%
    09:00 +25°C° 0 mm 3 mps 754 mmHg 64%
    10:00 +26°C° 0 mm 3 mps 754 mmHg 58%
    11:00 +27°C° 0 mm 3 mps 754 mmHg 56%
    12:00 +28°C° 0 mm 3 mps 753 mmHg 53%
    13:00 +28°C° 0 mm 3 mps 753 mmHg 50%
    14:00 +28°C° 0 mm 3 mps 753 mmHg 50%
    15:00 +29°C° 0 mm 3 mps 753 mmHg 50%
    16:00 +29°C° 0 mm 3 mps 753 mmHg 50%
    17:00 +28°C° 0.1 mm 3 mps 753 mmHg 56%
    18:00 +27°C° 0.1 mm 2 mps 753 mmHg 62%
    19:00 +26°C° 0.1 mm 2 mps 753 mmHg 68%
    20:00 +24°C° 0 mm 2 mps 753 mmHg 73%
    21:00 +23°C° 0 mm 2 mps 753 mmHg 78%
    22:00 +22°C° 0 mm 1 mps 754 mmHg 83%
    23:00 +20°C° 0 mm 2 mps 754 mmHg 86%

    25 July, Wednesday

    Time Temperature Precipitation Wind Pressure Humidity
    00:00 +20°C° 0 mm 2 mps 754 mmHg 89%
    01:00 +19°C° 0 mm 2 mps 754 mmHg 91%
    02:00 +19°C° 0 mm 2 mps 754 mmHg 93%
    03:00 +19°C° 0 mm 2 mps 754 mmHg 94%
    04:00 +18°C° 0 mm 2 mps 754 mmHg 95%
    05:00 +19°C° 0 mm 2 mps 754 mmHg 91%
    06:00 +21°C° 0 mm 2 mps 754 mmHg 86%
    07:00 +23°C° 0 mm 2 mps 754 mmHg 81%
    08:00 +24°C° 0.1 mm 2 mps 754 mmHg 74%
    09:00 +26°C° 0.1 mm 3 mps 754 mmHg 66%
    10:00 +27°C° 0.1 mm 3 mps 754 mmHg 59%
    11:00 +28°C° 0 mm 3 mps 754 mmHg 55%
    12:00 +29°C° 0 mm 3 mps 754 mmHg 51%
    13:00 +30°C° 0 mm 4 mps 753 mmHg 47%
    14:00 +30°C° 0 mm 3 mps 753 mmHg 47%
    15:00 +30°C° 0 mm 3 mps 753 mmHg 47%
    16:00 +30°C° 0 mm 3 mps 753 mmHg 47%
    17:00 +29°C° 0 mm 3 mps 753 mmHg 52%
    18:00 +28°C° 0 mm 2 mps 753 mmHg 56%
    19:00 +27°C° 0 mm 2 mps 753 mmHg 61%
    20:00 +26°C° 0 mm 2 mps 753 mmHg 65%
    21:00 +24°C° 0 mm 1 mps 754 mmHg 68%
    22:00 +23°C° 0 mm 1 mps 754 mmHg 71%
    23:00 +23°C° 0 mm 1 mps 754 mmHg 74%

    26 July, Thursday

    Time Temperature Precipitation Wind Pressure Humidity
    00:00 +22°C° 0 mm 1 mps 754 mmHg 77%
    01:00 +21°C° 0 mm 1 mps 754 mmHg 80%
    02:00 +21°C° 0 mm 1 mps 754 mmHg 83%
    03:00 +20°C° 0 mm 1 mps 754 mmHg 86%
    04:00 +20°C° 0 mm 1 mps 754 mmHg 89%
    05:00 +21°C° 0 mm 1 mps 754 mmHg 84%
    06:00 +21°C° 0 mm 2 mps 755 mmHg 80%
    07:00 +23°C° 0 mm 2 mps 755 mmHg 75%
    08:00 +25°C° 0 mm 2 mps 755 mmHg 68%
    09:00 +27°C° 0 mm 2 mps 755 mmHg 61%
    10:00 +28°C° 0 mm 2 mps 755 mmHg 54%
    11:00 +29°C° 0 mm 3 mps 755 mmHg 51%
    12:00 +30°C° 0 mm 3 mps 754 mmHg 47%
    13:00 +31°C° 0 mm 3 mps 754 mmHg 43%
    14:00 +31°C° 0 mm 3 mps 754 mmHg 43%
    15:00 +31°C° 0 mm 3 mps 754 mmHg 43%
    16:00 +32°C° 0 mm 4 mps 754 mmHg 43%
    17:00 +29°C° 0 mm 3 mps 754 mmHg 50%
    18:00 +28°C° 0 mm 3 mps 754 mmHg 56%
    19:00 +27°C° 0 mm 2 mps 754 mmHg 62%
    20:00 +26°C° 0 mm 2 mps 754 mmHg 67%
    21:00 +24°C° 0 mm 2 mps 754 mmHg 73%
    22:00 +23°C° 0 mm 2 mps 755 mmHg 78%
    23:00 +21°C° 0 mm 2 mps 755 mmHg 81%

    27 July, Friday

    Time Temperature Precipitation Wind Pressure Humidity
    00:00 +21°C° 0 mm 2 mps 755 mmHg 83%
    01:00 +21°C° 0 mm 1 mps 755 mmHg 86%
    02:00 +21°C° 0 mm 1 mps 755 mmHg 88%
    03:00 +19°C° 0 mm 2 mps 755 mmHg 89%
    04:00 +19°C° 0 mm 2 mps 755 mmHg 90%
    05:00 +20°C° 0 mm 2 mps 755 mmHg 86%
    06:00 +21°C° 0 mm 2 mps 755 mmHg 81%
    07:00 +23°C° 0 mm 2 mps 755 mmHg 76%
    08:00 +25°C° 0 mm 2 mps 755 mmHg 71%
    09:00 +26°C° 0 mm 2 mps 755 mmHg 66%
    10:00 +28°C° 0 mm 2 mps 754 mmHg 61%
    11:00 +28°C° 0.1 mm 3 mps 754 mmHg 58%
    12:00 +29°C° 0.1 mm 3 mps 754 mmHg 56%
    13:00 +30°C° 0.1 mm 3 mps 754 mmHg 54%
    14:00 +30°C° 0.2 mm 2 mps 753 mmHg 54%
    15:00 +30°C° 0.2 mm 2 mps 753 mmHg 53%
    16:00 +30°C° 0.2 mm 2 mps 753 mmHg 53%
    17:00 +29°C° 0 mm 2 mps 753 mmHg 57%
    18:00 +28°C° 0 mm 1 mps 753 mmHg 61%
    19:00 +28°C° 0 mm 1 mps 753 mmHg 65%
    20:00 +26°C° 0 mm 1 mps 753 mmHg 69%
    21:00 +25°C° 0 mm 1 mps 753 mmHg 72%
    22:00 +24°C° 0 mm 1 mps 753 mmHg 76%
    23:00 +24°C° 0 mm 1 mps 753 mmHg 78%
    Show more